Theta_e
303 302 302 302 302 302 302 302 302 302 302 303 303 303 303 304 304 305 305 303 307 311 313 315 317 317 319 319 319 319 321 321 320 320 320 321 321 321 322 323 324 326 328
302 301 301 301 301 301 301 300 300 300 300 301 301 302 302 303 304 304 304 306 307 311 314 315 315 317 318 318 318 318 318 318 317 317 317 317 318 319 319 319 321 322 323
300 299 300 300 300 300 300 300 299 300 300 301 300 301 302 302 303 303 304 305 306 306 308 310 310 310 312 313 313 312 312 312 312 313 313 314 315 315 316 316 317 318 319
299 299 299 299 299 299 299 298 298 298 299 299 299 301 301 302 302 302 303 306 307 305 304 303 303 306 307 309 310 310 311 312 311 311 311 312 312 313 314 315 315 316 316
298 298 298 298 298 297 297 297 297 297 297 298 299 298 300 301 302 302 304 305 303 303 304 301 300 300 303 305 308 309 310 310 310 310 310 311 311 312 312 313 313 314 315
297 297 297 297 297 296 296 296 296 297 297 297 296 297 299 301 302 302 303 302 301 301 301 301 302 301 299 302 304 306 308 308 308 309 309 309 310 310 311 311 312 313 313
296 296 296 296 296 295 295 295 295 294 295 298 295 298 299 300 301 302 302 301 299 300 300 299 300 300 300 298 301 303 306 307 307 307 307 308 308 309 310 310 311 312 312
295 294 294 294 294 293 294 294 294 293 295 296 294 295 294 296 299 299 300 299 299 299 298 298 298 298 299 300 298 299 302 304 305 306 306 307 308 308 309 310 310 311 311
293 293 293 293 293 293 292 293 293 293 292 295 295 293 293 293 296 298 298 299 297 298 298 297 297 297 297 298 298 298 297 300 302 304 304 305 306 307 308 309 309 310 310
292 292 292 292 292 292 291 292 293 292 292 291 294 294 294 293 292 292 296 298 298 297 297 297 297 297 297 298 297 296 295 297 298 300 301 303 304 305 307 307 308 309 310
291 291 291 291 290 291 291 291 291 291 290 289 290 291 291 292 292 290 293 295 297 298 298 296 296 298 296 296 295 294 294 295 297 297 299 300 303 304 306 307 307 308 309
290 290 290 290 290 290 290 290 289 288 288 287 287 288 287 288 290 289 288 290 288 293 295 296 296 297 297 295 294 292 292 294 296 297 298 299 301 302 303 305 306 307 308
289 289 289 289 289 289 289 289 288 287 287 286 286 286 287 286 287 287 285 285 285 290 292 295 296 295 294 293 292 291 291 293 295 296 296 298 299 300 301 302 304 305 305
290 290 289 289 288 288 288 287 287 287 287 287 286 287 286 286 287 286 285 284 283 287 289 289 294 294 293 291 290 289 290 292 293 294 295 296 296 298 299 300 302 302 302
288 285 285 286 286 286 286 286 285 285 285 285 285 285 285 286 286 286 286 285 283 281 286 287 289 290 290 289 289 289 289 291 291 293 294 294 295 296 297 298 299 299 300
286 285 283 283 283 284 284 284 284 285 284 285 285 284 284 284 284 285 284 284 284 282 280 288 288 288 286 287 288 287 288 289 291 291 292 292 294 294 294 295 296 296 297
283 283 283 282 282 282 283 282 283 284 284 284 284 284 283 284 283 284 284 284 283 283 280 283 286 287 284 285 287 286 287 287 288 289 290 292 292 292 292 293 293 293 294
283 282 282 281 282 282 282 281 282 283 283 283 283 283 282 283 282 283 282 282 282 283 281 279 283 284 285 285 284 284 285 286 286 288 290 290 290 290 290 291 291 291 291
282 282 282 280 281 281 281 282 283 283 284 284 283 281 281 281 280 282 282 281 282 282 282 280 280 284 285 286 284 285 285 285 285 288 289 289 288 289 288 290 290 290 291
280 281 282 282 281 282 282 283 283 283 283 283 282 281 280 280 280 280 281 281 282 282 282 281 281 282 285 285 284 283 282 284 283 285 287 287 288 288 288 288 288 288 290
280 280 280 282 282 282 282 283 283 283 282 281 281 280 280 281 282 282 281 281 281 281 280 281 281 282 283 283 281 282 281 282 283 284 283 283 283 284 284 286 286 287 289
278 278 279 280 280 282 283 284 283 281 280 280 280 281 280 280 281 283 284 283 282 281 280 281 281 281 282 281 282 280 279 279 278 284 280 280 282 282 283 282 285 286 287
278 278 278 278 279 280 282 283 283 281 281 282 281 281 281 282 281 281 283 284 284 284 284 282 281 282 282 282 281 278 278 278 279 281 279 278 282 281 283 282 285 284 284
279 279 279 279 279 280 282 283 283 282 282 282 282 282 282 282 282 281 281 281 281 282 282 283 283 283 284 283 281 280 279 280 280 281 278 274 280 279 281 281 285 283 283
278 279 279 279 279 280 282 283 283 282 282 282 282 283 282 282 283 284 281 280 280 281 283 285 285 285 286 286 284 281 280 278 277 278 277 276 277 277 278 278 280 282 282
277 277 278 278 279 279 281 282 282 281 280 281 282 282 283 282 284 284 281 280 279 280 280 279 280 283 284 284 286 283 281 277 277 275 276 274 276 275 274 279 278 278 278
Wind_Speed
1 2 3 3 4 5 5 5 6 6 6 7 6 6 7 7 6 4 2 6 4 4 2 1 3 4 5 6 6 6 7 9 10 10 10 9 10 10 11 13 14 14 14
2 2 3 3 4 4 5 6 6 7 7 6 7 6 6 6 6 5 4 5 2 4 6 7 6 7 8 8 8 9 9 8 9 9 9 10 10 11 11 12 13 14 15
2 3 3 3 3 4 6 5 6 6 7 6 7 6 6 6 5 5 4 3 5 6 7 9 9 8 8 8 7 7 7 6 7 7 8 9 9 10 12 13 13 14 16
3 4 3 3 3 4 4 5 6 6 6 6 6 6 5 5 5 5 5 4 3 5 7 8 8 9 8 8 7 7 6 7 7 8 8 9 10 10 11 12 14 15 16
3 4 3 3 4 4 4 4 5 6 6 6 6 6 5 5 4 5 4 3 3 1 1 6 4 5 8 7 8 7 8 7 7 7 8 9 10 11 11 12 13 15 17
4 4 3 3 3 4 5 4 6 6 7 6 7 7 5 4 4 4 5 4 3 3 2 3 2 4 4 6 8 8 8 8 8 8 9 9 10 11 12 13 14 16 17
4 4 4 4 4 5 5 6 5 7 6 4 6 5 3 4 6 4 4 5 4 3 2 2 1 2 1 2 7 8 10 10 10 10 10 11 12 13 15 16 18 18 19
4 4 4 4 5 5 6 5 5 5 5 3 4 4 3 4 5 5 4 4 4 2 2 2 2 2 2 2 3 5 10 12 12 12 13 14 15 16 17 17 18 19 20
5 5 5 5 5 5 5 4 4 5 5 3 3 4 3 2 4 5 6 5 5 2 1 3 2 1 2 3 4 5 12 13 14 15 15 15 16 16 17 18 19 19 20
6 5 6 5 6 4 6 4 4 4 3 5 2 3 4 3 3 3 3 4 3 2 1 2 1 0 2 2 5 7 13 13 14 14 14 14 15 16 17 18 18 18 19
5 6 6 6 6 4 5 4 4 4 3 4 4 3 3 3 3 3 1 4 3 1 2 2 1 0 2 4 4 7 14 13 12 12 14 15 16 17 18 18 18 18 19
4 6 6 6 6 5 5 5 3 4 5 4 3 3 4 4 2 2 3 2 5 1 0 1 1 1 1 3 7 10 14 12 11 12 14 16 17 17 16 16 17 19 21
5 6 6 7 5 6 5 4 4 5 5 4 4 3 3 4 3 3 4 4 3 3 2 1 1 0 0 4 6 10 15 12 12 13 15 15 17 17 16 17 18 20 20
3 4 4 6 6 6 6 6 5 4 4 3 3 2 2 3 3 3 4 2 3 3 3 1 2 1 2 5 9 14 8 13 13 14 14 15 17 17 17 18 18 19 19
3 3 3 3 5 4 3 2 3 3 2 2 2 2 4 3 2 3 3 3 3 2 2 2 1 3 3 5 7 7 8 12 15 13 13 14 16 16 16 16 17 18 19
3 4 6 7 7 6 5 6 5 5 5 4 4 4 4 4 4 3 4 4 4 4 3 1 2 4 2 5 6 6 7 12 13 12 12 14 14 15 15 16 17 18 18
6 7 7 7 8 6 6 7 7 6 7 6 6 5 5 5 4 4 4 4 4 3 5 5 7 6 3 5 5 5 6 6 6 11 13 12 14 12 13 14 15 16 17
6 7 6 8 7 7 6 9 9 7 7 7 6 5 6 4 6 5 5 5 4 4 4 10 8 5 6 3 3 4 4 3 5 9 11 11 12 11 13 14 13 14 15
7 7 6 9 9 8 9 9 8 7 7 7 5 7 8 6 7 6 6 5 4 4 5 7 8 5 4 3 3 3 3 4 3 8 7 11 11 10 11 12 10 13 15
6 7 7 6 8 8 8 7 8 8 7 5 7 9 9 9 8 7 6 6 5 5 6 8 8 7 4 2 2 4 4 4 7 3 4 7 9 9 7 9 9 13 16
7 6 7 7 6 7 6 8 8 7 7 9 10 10 9 9 13 11 6 7 7 6 7 8 7 5 4 1 2 2 4 6 7 1 4 4 3 2 1 4 5 11 13
6 6 8 8 8 6 12 16 11 6 11 11 9 9 10 10 15 19 19 17 10 8 10 7 6 6 5 3 2 2 3 3 4 1 4 8 3 2 2 1 7 11 12
6 7 7 8 9 10 15 16 17 10 10 10 10 9 8 7 10 10 17 20 20 23 22 10 10 9 7 3 2 2 3 3 5 5 4 6 2 2 2 2 5 8 9
7 7 7 8 9 8 16 17 18 12 11 12 12 11 10 9 9 10 9 10 12 13 15 12 14 13 10 4 4 3 3 6 7 7 4 4 2 3 3 2 5 5 7
6 6 7 8 9 9 14 15 14 10 11 13 11 11 11 10 14 17 11 11 11 12 13 20 21 20 18 17 11 2 6 5 5 3 2 1 2 3 3 2 2 3 8
6 6 7 7 8 9 12 13 12 8 10 8 9 10 12 13 16 16 11 11 10 12 8 6 8 14 17 14 18 12 7 6 5 4 1 2 1 2 5 0 1 1 2
Wind_Direction
336 331 341 323 328 331 329 327 322 320 311 302 298 291 291 291 284 278 295 83 349 331 330 50 64 62 63 56 49 47 48 45 40 32 26 19 9 4 3 357 350 341 336
310 311 311 320 315 332 332 324 322 311 307 302 295 285 281 281 274 280 268 119 36 16 53 61 60 61 60 58 51 45 36 31 26 22 20 8 2 356 352 351 345 338 334
302 309 299 307 323 325 308 305 307 304 299 294 289 279 274 265 262 257 255 220 137 69 64 60 49 48 51 49 46 43 34 25 18 14 7 357 350 342 339 337 334 335 331
281 290 295 296 333 301 312 308 312 307 302 300 297 295 284 263 255 256 234 217 198 149 109 63 47 43 38 34 32 28 27 26 18 15 7 357 346 337 332 327 327 324 322
257 273 283 300 310 301 301 309 308 303 301 296 296 292 279 269 242 224 194 186 93 194 80 109 87 57 30 25 26 21 16 10 10 6 357 353 345 339 333 328 323 319 318
256 268 274 277 291 294 290 296 302 299 294 290 298 290 270 255 229 201 185 168 142 138 75 35 346 111 53 27 23 19 16 8 0 352 350 347 339 335 333 329 324 320 318
242 259 268 275 273 281 296 297 295 293 291 297 290 222 226 237 218 189 187 175 168 156 75 28 2 0 39 81 30 22 21 8 357 347 339 335 333 330 327 325 323 320 318
232 259 263 278 280 285 278 280 287 297 283 280 299 289 228 188 212 203 190 181 171 177 87 30 17 360 354 32 31 17 7 352 345 341 337 336 334 329 326 322 319 317 313
230 243 261 262 270 268 273 278 275 285 294 279 280 305 273 267 155 170 209 200 189 175 79 17 347 46 38 37 13 12 359 352 350 346 342 335 330 326 323 317 313 311 311
248 246 249 254 257 263 265 264 258 282 283 277 282 254 294 330 306 182 194 204 214 239 142 350 324 76 64 22 7 35 352 345 347 341 339 334 328 322 312 309 311 312 315
237 251 244 243 248 249 255 262 269 268 292 293 287 339 302 280 266 284 230 157 186 117 133 2 5 270 61 17 340 1 339 337 337 333 333 330 321 309 303 308 315 317 319
235 228 235 240 243 248 245 248 241 260 258 250 261 261 273 308 344 312 283 327 328 297 288 4 260 166 99 357 332 346 327 329 331 336 335 326 317 308 309 314 320 324 321
240 236 222 230 233 235 242 248 242 245 244 245 246 259 257 265 291 285 285 289 289 334 318 228 47 21 73 342 329 336 322 334 332 332 330 322 317 316 317 323 330 329 322
248 265 241 248 249 249 239 239 239 230 237 240 253 274 293 286 287 269 267 314 301 250 275 252 163 215 42 332 317 328 329 323 330 326 319 318 316 320 325 334 336 327 319
244 143 250 256 266 267 274 273 246 225 223 248 241 224 248 263 256 259 261 252 255 284 295 159 290 129 338 321 310 316 310 326 322 321 320 319 321 326 333 344 336 326 320
277 239 242 239 241 234 224 223 234 223 216 220 219 214 227 239 233 231 237 241 238 252 275 346 283 321 294 301 289 297 311 312 323 326 324 323 320 327 334 341 331 324 328
244 245 244 241 241 232 225 229 231 230 218 220 215 219 227 225 233 232 233 234 241 238 259 286 281 294 292 274 301 311 311 307 309 317 326 319 329 336 351 348 340 337 339
239 244 239 247 237 232 225 232 234 222 227 222 218 207 220 213 226 228 234 237 236 238 259 275 281 265 261 248 260 296 287 267 272 302 317 323 329 339 354 354 354 350 341
237 240 229 249 246 236 235 232 233 235 224 223 209 210 222 212 221 217 220 236 244 247 252 258 273 266 276 298 324 303 287 283 264 288 315 317 330 335 338 352 349 350 348
227 239 238 235 249 250 239 231 228 230 228 222 220 222 220 219 220 213 215 222 237 255 250 251 257 270 287 302 269 297 320 328 321 306 297 312 306 302 313 337 340 344 341
234 222 237 239 238 240 242 238 231 222 226 232 231 227 226 224 226 220 213 207 214 230 245 253 262 272 276 308 304 313 294 315 302 48 314 313 306 284 279 329 336 326 334
238 245 237 236 243 242 242 247 234 231 239 237 238 228 224 223 230 230 228 228 227 225 241 253 264 265 269 238 239 263 319 323 322 138 348 311 285 268 256 117 318 328 328
247 244 238 233 238 243 245 243 240 236 239 237 233 236 233 221 215 225 231 234 236 238 242 252 258 252 265 247 231 251 255 262 268 304 2 287 262 274 266 243 300 321 334
254 252 246 240 245 244 241 242 242 239 243 243 239 234 234 234 223 216 224 231 230 231 236 236 239 250 252 238 200 207 247 281 276 266 159 269 339 279 276 250 245 323 338
267 261 263 263 258 255 251 247 242 237 241 245 244 240 233 233 233 234 228 238 241 242 235 239 239 246 249 251 237 225 244 255 283 242 191 229 291 293 262 258 158 297 324
277 276 276 273 273 274 269 261 251 252 254 255 251 248 238 243 247 243 232 235 243 248 234 227 236 250 250 245 242 226 234 236 243 291 84 186 300 32 317 161 190 201 323